Find Starlink 5339

NORAD ID: 56510 Int'l Des: 2023-065 Owner: SPXS Country: US Constellation: starlink operational
LEOCIRCULAR

当前视图

正在加载3D地球...

About Starlink 5339

Starlink 5339 (NORAD 56510) is a starlink constellation satellite (v1.5) launched May 14, 2023 by SPXS of US. It operates in LEO, CIRCULAR orbit with a mass of 305.00 kg.

即将过境

Passes for default location (London). Set your location on the main map for personalized predictions.

高度历史

Loading altitude history...

两行轨道根数

1 56510U 23065H 26263.21411601 -.00000609 00000-0 -12601-4 0 9999
2 56510 43.0019 193.5838 0001537 270.5884 89.4792 15.27573733186358
Epoch: Sep 20, 2026 • Age: 31 hours

当前状态

高度 495.0 km
远地点 / 近地点 N/A
速度 7.62 km/s
星下点 -42.24°S, 72.3°W
发射日期 May 14, 2023
运行时间 3.3 years
类型 internet

技术详情

分类 Payload
质量 305.00 kg
干质量 290.00 kg
长度 0.20 m
跨度 9.00 m
形状 ? Box + pan
制造商 SPXS
平台类型 Starlink
阶段状态 In Orbit
所有者/国家 SPXS/US

Most Searched